| time (UTC) | temp F | wind direction | speed MPH | gust MPH | rain 1hr in | rain 24hr in | rain mn in | humidity % | barometer mb |
| 20260902151543 | 68 | 130 | 0.0 | 0.0 | 0.00 | 0.00 | 0.00 | 60 | 1008.2 |
| 20260902150041 | 68 | 136 | 0.0 | 0.0 | 0.00 | 0.00 | 0.00 | 55 | 1008.2 |
| 20260902144541 | 64 | 30 | 0.0 | 0.0 | 0.00 | 0.00 | 0.00 | 58 | 1008.3 |
| 20260902143040 | 61 | 51 | 0.0 | 0.0 | 0.00 | 0.00 | 0.00 | 66 | 1008.5 |
| 20260902141540 | 59 | 26 | 0.0 | 1.0 | 0.00 | 0.00 | 0.00 | 70 | 1008.5 |
| 20260902140043 | 59 | 16 | 0.0 | 2.0 | 0.00 | 0.00 | 0.00 | 72 | 1008.7 |
| 20260902134539 | 58 | 12 | 0.0 | 0.0 | 0.00 | 0.00 | 0.00 | 71 | 1008.7 |
| 20260902133039 | 59 | 1 | 0.0 | 0.0 | 0.00 | 0.00 | 0.00 | 67 | 1008.6 |
| 20260902131539 | 60 | 356 | 0.0 | 0.0 | 0.00 | 0.00 | 0.00 | 66 | 1008.4 |
| 20260902130042 | 60 | 21 | 0.0 | 0.0 | 0.00 | 0.00 | 0.00 | 62 | 1008.4 |
| 20260902124537 | 60 | 22 | 0.0 | 0.0 | 0.00 | 0.00 | 0.00 | 58 | 1008.5 |
| 20260902123039 | 60 | 22 | 0.0 | 0.0 | 0.00 | 0.00 | 0.00 | 59 | 1008.4 |
| 20260902121535 | 60 | 22 | 0.0 | 0.0 | 0.00 | 0.00 | 0.00 | 61 | 1008.5 |
| 20260902120035 | 61 | 22 | 0.0 | 0.0 | 0.00 | 0.00 | 0.00 | 62 | 1008.3 |
| 20260902114602 | 61 | 30 | 0.0 | 0.0 | 0.00 | 0.00 | 0.00 | 64 | 1008.0 |
| 20260902113041 | 59 | 23 | 0.0 | 0.0 | 0.00 | 0.00 | 0.00 | 66 | 1008.2 |
| 20260902111530 | 60 | 356 | 0.0 | 0.0 | 0.00 | 0.00 | 0.00 | 63 | 1008.5 |
| 20260902110038 | 58 | 286 | 0.0 | 0.0 | 0.00 | 0.00 | 0.00 | 64 | 1008.7 |
| 20260902104536 | 57 | 290 | 0.0 | 0.0 | 0.00 | 0.00 | 0.00 | 67 | 1008.8 |
| 20260902103027 | 59 | 288 | 0.0 | 0.0 | 0.00 | 0.00 | 0.00 | 62 | 1009.0 |
| 20260902101525 | 57 | 275 | 0.0 | 0.0 | 0.00 | 0.00 | 0.00 | 68 | 1008.9 |
| 20260902100024 | 56 | 275 | 0.0 | 0.0 | 0.00 | 0.00 | 0.00 | 70 | 1008.8 |
| 20260902094520 | 58 | 271 | 0.0 | 0.0 | 0.00 | 0.00 | 0.00 | 67 | 1008.7 |
| 20260902093016 | 60 | 250 | 0.0 | 0.0 | 0.00 | 0.00 | 0.00 | 63 | 1008.7 |
| 20260902091512 | 62 | 231 | 0.0 | 0.0 | 0.00 | 0.00 | 0.00 | 60 | 1008.5 |
| 20260902090008 | 63 | 243 | 0.0 | 0.0 | 0.00 | 0.00 | 0.00 | 60 | 1008.5 |
| 20260902084517 | 63 | 146 | 0.0 | 0.0 | 0.00 | 0.00 | 0.00 | 59 | 1008.6 |
| 20260902083005 | 63 | 157 | 0.0 | 0.0 | 0.00 | 0.00 | 0.00 | 57 | 1008.6 |
| 20260902081502 | 64 | 155 | 0.0 | 0.0 | 0.00 | 0.00 | 0.00 | 55 | 1008.6 |
| 20260902080104 | 64 | 157 | 0.0 | 0.0 | 0.00 | 0.00 | 0.00 | 53 | 1008.5 |
| 20260902080001 | 64 | 163 | 0.0 | 0.0 | 0.00 | 0.00 | 0.00 | 54 | 1008.6 |
| 20260902074612 | 64 | 146 | 0.0 | 0.0 | 0.00 | 0.00 | 0.00 | 53 | 1008.7 |
| 20260902073105 | 65 | 141 | 0.0 | 0.0 | 0.00 | 0.00 | 0.00 | 53 | 1008.7 |
| 20260902071602 | 65 | 172 | 0.0 | 0.0 | 0.00 | 0.00 | 0.00 | 55 | 1008.8 |
| 20260902070055 | 65 | 159 | 0.0 | 0.0 | 0.00 | 0.00 | 0.00 | 49 | 1008.5 |
| 20260902064552 | 66 | 151 | 0.0 | 0.0 | 0.00 | 0.00 | 0.00 | 51 | 1008.5 |
| 20260902063053 | 66 | 156 | 0.0 | 0.0 | 0.00 | 0.00 | 0.00 | 50 | 1008.7 |
| 20260902061551 | 67 | 149 | 0.0 | 0.0 | 0.00 | 0.00 | 0.00 | 50 | 1008.7 |
| 20260902060055 | 67 | 129 | 0.0 | 0.0 | 0.00 | 0.00 | 0.00 | 49 | 1008.8 |
| 20260902054545 | 68 | 133 | 0.0 | 0.0 | 0.00 | 0.00 | 0.00 | 47 | 1008.7 |
| 20260902053058 | 68 | 129 | 0.0 | 0.0 | 0.00 | 0.00 | 0.00 | 47 | 1008.9 |
| 20260902051544 | 69 | 165 | 0.0 | 0.0 | 0.00 | 0.00 | 0.00 | 46 | 1009.0 |
| 20260902050045 | 70 | 160 | 0.0 | 0.0 | 0.00 | 0.00 | 0.00 | 46 | 1008.9 |
| 20260902044641 | 71 | 143 | 0.0 | 0.0 | 0.00 | 0.00 | 0.00 | 44 | 1008.8 |
| 20260902043040 | 71 | 112 | 0.0 | 0.0 | 0.00 | 0.00 | 0.00 | 47 | 1008.9 |
| 20260902041541 | 71 | 129 | 0.0 | 0.0 | 0.00 | 0.00 | 0.00 | 45 | 1008.9 |
| 20260902040039 | 72 | 123 | 0.0 | 0.0 | 0.00 | 0.00 | 0.00 | 43 | 1008.9 |
| 20260902034551 | 72 | 115 | 0.0 | 0.0 | 0.00 | 0.00 | 0.00 | 41 | 1009.0 |
| 20260902033040 | 72 | 139 | 0.0 | 0.0 | 0.00 | 0.00 | 0.00 | 40 | 1009.0 |
| 20260902031537 | 73 | 158 | 0.0 | 0.0 | 0.00 | 0.00 | 0.00 | 40 | 1009.1 |
| 20260902030036 | 74 | 148 | 0.0 | 2.0 | 0.00 | 0.00 | 0.00 | 40 | 1009.0 |
| 20260902024538 | 75 | 140 | 0.0 | 0.0 | 0.00 | 0.00 | 0.00 | 35 | 1009.1 |
| 20260902023042 | 76 | 144 | 0.0 | 0.0 | 0.00 | 0.00 | 0.00 | 38 | 1009.1 |
| 20260902021536 | 76 | 131 | 0.0 | 0.0 | 0.00 | 0.00 | 0.00 | 35 | 1009.0 |
| 20260902020036 | 76 | 121 | 0.0 | 2.0 | 0.00 | 0.00 | 0.00 | 36 | 1008.9 |
| 20260902014537 | 77 | 146 | 0.0 | 1.0 | 0.00 | 0.00 | 0.00 | 36 | 1008.8 |
| 20260902013033 | 78 | 129 | 0.0 | 2.0 | 0.00 | 0.00 | 0.00 | 35 | 1008.9 |
| 20260902011534 | 80 | 162 | 1.0 | 3.0 | 0.00 | 0.00 | 0.00 | 31 | 1008.8 |
| 20260902010035 | 80 | 131 | 0.0 | 4.0 | 0.00 | 0.00 | 0.00 | 31 | 1008.9 |
| 20260902004531 | 81 | 130 | 0.0 | 2.0 | 0.00 | 0.00 | 0.00 | 32 | 1009.0 |
| 20260902003034 | 81 | 131 | 1.0 | 3.0 | 0.00 | 0.00 | 0.00 | 31 | 1009.0 |
| 20260902001543 | 82 | 127 | 1.0 | 4.0 | 0.00 | 0.00 | 0.00 | 31 | 1009.0 |
| 20260902000037 | 82 | 147 | 2.0 | 4.0 | 0.00 | 0.00 | 0.00 | 28 | 1009.1 |
| 20260901234527 | 81 | 132 | 2.0 | 6.0 | 0.00 | 0.00 | 0.00 | 29 | 1009.1 |
| 20260901233026 | 82 | 144 | 0.0 | 5.0 | 0.00 | 0.00 | 0.00 | 37 | 1009.3 |
| 20260901231524 | 83 | 113 | 2.0 | 8.0 | 0.00 | 0.00 | 0.00 | 28 | 1009.3 |
| 20260901230026 | 85 | 176 | 1.0 | 4.0 | 0.00 | 0.00 | 0.00 | 33 | 1009.4 |
| 20260901224526 | 85 | 122 | 0.0 | 1.0 | 0.00 | 0.00 | 0.00 | 22 | 1009.6 |
| 20260901223016 | 85 | 149 | 0.0 | 1.0 | 0.00 | 0.00 | 0.00 | 23 | 1009.7 |
| 20260901221514 | 84 | 241 | 2.0 | 5.0 | 0.00 | 0.00 | 0.00 | 21 | 1009.9 |
| 20260901220019 | 84 | 106 | 0.0 | 1.0 | 0.00 | 0.00 | 0.00 | 23 | 1010.1 |
| 20260901214509 | 83 | 100 | 0.0 | 1.0 | 0.00 | 0.00 | 0.00 | 25 | 1010.3 |
| 20260901213004 | 82 | 117 | 0.0 | 0.0 | 0.00 | 0.00 | 0.00 | 25 | 1010.5 |
| 20260901211601 | 80 | 98 | 0.0 | 3.0 | 0.00 | 0.00 | 0.00 | 30 | 1010.7 |
| 20260901210058 | 80 | 102 | 2.0 | 5.0 | 0.00 | 0.00 | 0.00 | 27 | 1010.8 |
| 20260901204556 | 80 | 109 | 0.0 | 3.0 | 0.00 | 0.00 | 0.00 | 32 | 1011.0 |
| 20260901203053 | 78 | 93 | 0.0 | 4.0 | 0.00 | 0.00 | 0.00 | 37 | 1011.2 |
| 20260901201557 | 79 | 118 | 0.0 | 1.0 | 0.00 | 0.00 | 0.00 | 29 | 1011.3 |
| 20260901200051 | 77 | 98 | 0.0 | 3.0 | 0.00 | 0.00 | 0.00 | 30 | 1011.5 |
| 20260901194556 | 78 | 95 | 0.0 | 2.0 | 0.00 | 0.00 | 0.00 | 29 | 1011.5 |
| 20260901193051 | 77 | 115 | 0.0 | 2.0 | 0.00 | 0.00 | 0.00 | 33 | 1011.8 |
| 20260901191541 | 76 | 118 | 0.0 | 4.0 | 0.00 | 0.00 | 0.00 | 38 | 1011.9 |
| 20260901190038 | 76 | 119 | 0.0 | 2.0 | 0.00 | 0.00 | 0.00 | 36 | 1012.0 |
| 20260901184540 | 75 | 127 | 1.0 | 4.0 | 0.00 | 0.00 | 0.00 | 36 | 1012.2 |
| 20260901183034 | 74 | 129 | 3.0 | 6.0 | 0.00 | 0.00 | 0.00 | 35 | 1012.4 |
| 20260901181535 | 75 | 128 | 1.0 | 6.0 | 0.00 | 0.00 | 0.00 | 36 | 1012.5 |
| 20260901180028 | 74 | 117 | 1.0 | 5.0 | 0.00 | 0.00 | 0.00 | 37 | 1012.7 |
| 20260901174527 | 73 | 164 | 0.0 | 0.0 | 0.00 | 0.00 | 0.00 | 39 | 1012.7 |
| 20260901173024 | 73 | 147 | 0.0 | 0.0 | 0.00 | 0.00 | 0.00 | 39 | 1012.9 |
| 20260901171521 | 71 | 139 | 0.0 | 1.0 | 0.00 | 0.00 | 0.00 | 39 | 1013.0 |
| 20260901170044 | 70 | 157 | 0.0 | 0.0 | 0.00 | 0.00 | 0.00 | 43 | 1013.1 |
| 20260901164513 | 68 | 165 | 0.0 | 0.0 | 0.00 | 0.00 | 0.00 | 43 | 1013.2 |
| 20260901163021 | 67 | 148 | 0.0 | 0.0 | 0.00 | 0.00 | 0.00 | 44 | 1013.2 |
| 20260901161505 | 66 | 167 | 0.0 | 0.0 | 0.00 | 0.00 | 0.00 | 48 | 1013.4 |
| 20260901160004 | 65 | 168 | 0.0 | 0.0 | 0.00 | 0.00 | 0.00 | 49 | 1013.3 |
| 20260901154609 | 64 | 163 | 0.0 | 0.0 | 0.00 | 0.00 | 0.00 | 50 | 1013.4 |
| 20260901153058 | 63 | 113 | 0.0 | 0.0 | 0.00 | 0.00 | 0.00 | 55 | 1013.5 |